SL-14 DEB, 45652

Orbit data source: Space-Track

SL-14 DEB, 45652 is space debris in LEO originally from a launch on Thu, 15 Aug 1991 UTC launched from the Plesetsk Missile And Space Complex (PKMTR). Debris objects in space refer to the collection of defunct objects orbiting the Earth. Examples of debris include non-operational satellites, rocket bodies, and fragments generated from explosions, collisions, or faulty payload assembly.

Loading next visibility...
Identifier
45652, 1991-056CW
Orbit
LEO
Country
Flag of CISCIS
Related business
Manufacturer
Unknown
Mission
Spacecraft
Bus & Motor
Unknown
Mass
Unknown
Launch date (UTC)
1991-08-15 (34 years ago)
Launch vehicle
Unknown
Launch site
Plesetsk Missile And Space Complex (PKMTR)
Object type
Payload
Rocket body
Debris
Shape & HBR
Unknown shape, 0.1 m
Radar Cross Section
Small (<0.1 m²)

Expand to show TLE details & history
Last TLE update: 1 day ago

TLE from 1 day ago
0 SL-14 DEB
1 45652U 91056CW  25287.77938712  .00000540  00000-0  12299-2 0  9995
2 45652  82.5496 296.0730 0026973 286.6461  73.1705 13.24232052266365
Epoch: 2025-10-14T18:42Z
TLE epoch observation values (Epoch: 2025-10-14T18:42:19.047Z)
Latitude
0.00005°
Longitude
-8.06927°
Altitude
1,165.572 km
Speed
7.273 km/s
True Right ascension
19h 44m 17s
True Declination
0° 00' 00"
Sunlit
Object was in daylight at epoch
Visualization orbit readout
Latitude
Unknown
Longitude
Unknown
Altitude
Unknown
Speed
Unknown
Apparent Right ascension
Unknown
Apparent Declination
Unknown
Sunlit
N/A
Visualization observer readout
Local Sidereal Time
12:59:13
Azimuth
Unknown
Elevation
Unknown
Doppler factor
Unknown
Orbital elements
Apogee altitude
1,186.181 km
Perigee altitude
1,145.484 km
Semi-major axis
7,543.97 km
Eccentricity
0.0027
Inclination
82.5496°
RAAN
296.073°
Arg. of periapsis
286.6461°
True anomaly
73.46664°
Mean anomaly
73.1705°
Eccentric anomaly
73.31854°
Mean motion
3.3124 °/min
Orbital period
108.68 mins
BSTAR
0.0012299
Loading maneuver chart data...
Computing Atmospheric mass density...
Loading historical data...
Loading historical data...
Loading historical data...
Loading historical data...
Loading historical data...
Loading historical data...
Loading historical data...

Documentation

Showing up to 5 results
|